sat.trackr.live / text

‹ back to catalog

STARLINK-30078

NORAD 56841 · 2023-079U

PAYLOAD ACTIVE UNKNOWN

§ Identity

Operator
Country
US
Launch date
2023-06-04
Launch site
AFETR
Launch vehicle
Mass (kg)
RCS (m²)

Purposes: comms

External: N2YO · Heavens-Above · Gunter

§ Orbital elements

Epoch: 2026-09-20T09:06:11.182176Z

Period
94.27 min
Inclination
43.0044°
Eccentricity
0.0001309
Mean motion
15.27578801 rev/d
Perigee alt
482.2 km
Apogee alt
484.0 km
Semi-major
6,861.2 km
B*
-1.2214e-5
RAAN
39.8562°
Arg perigee
253.0041°
Mean anomaly
107.0668°
Rev number
18,322

§ Raw data

STARLINK-300781 56841U 23079U   26263.37929609 -.00000598  00000+0 -12214-4 0  99962 56841  43.0044  39.8562 0001309 253.0041 107.0668 15.27578801183220

JSON: /api/v1/satellites/56841 · /tle

For live sub-satellite position, see the globe view (requires WebGL).

§ Visibility from observer

Set your observer location to see the next 7 days of passes ≥ 10°. The values pass through the URL so the page stays shareable.

No JS? Fill the form by hand. The geolocation button needs JavaScript.